IW9BHU-13 Weather Reports


time (UTC)temp
C
wind
direction
speed
KPH
gust
KPH
rain 1hr
cm
rain 24hr
cm
rain mn
cm
humidity
%
barometer
mb
20260504050705 17 322 3.2 9.7 0.00 0.00 0.00 56 1017.1
20260504050604 17 319 3.2 9.7 0.00 0.00 0.00 56 1017.1
20260504050504 17 318 3.2 11.3 0.00 0.00 0.00 56 1017.1
20260504050405 17 317 3.2 11.3 0.00 0.00 0.00 56 1017.2
20260504050306 17 316 1.6 11.3 0.00 0.00 0.00 56 1017.1
20260504050207 17 315 1.6 11.3 0.00 0.00 0.00 56 1017.1
20260504050111 17 311 1.6 11.3 0.00 0.00 0.00 56 1017.1
20260504050005 17 310 1.6 11.3 0.00 0.00 0.00 55 1017.1
20260504045904 17 309 1.6 11.3 0.00 0.00 0.00 55 1017.0
20260504045805 17 307 1.6 11.3 0.00 0.00 0.00 55 1017.1
20260504045705 17 303 1.6 11.3 0.00 0.00 0.00 55 1017.1
20260504045604 17 304 1.6 11.3 0.00 0.00 0.00 55 1017.0
20260504045505 17 308 1.6 4.8 0.00 0.00 0.00 55 1017.0
20260504045405 17 307 1.6 4.8 0.00 0.00 0.00 54 1017.1
20260504045317 17 306 1.6 4.8 0.00 0.00 0.00 54 1017.0
20260504045205 17 306 1.6 4.8 0.00 0.00 0.00 54 1017.0
20260504045105 17 306 1.6 4.8 0.00 0.00 0.00 54 1017.0
20260504045005 17 305 1.6 4.8 0.00 0.00 0.00 54 1017.0
20260504044904 17 304 1.6 3.2 0.00 0.00 0.00 54 1017.0
20260504044805 17 302 1.6 3.2 0.00 0.00 0.00 55 1017.0
20260504044705 17 300 1.6 3.2 0.00 0.00 0.00 56 1017.0
20260504044505 17 298 0.0 3.2 0.00 0.00 0.00 56 1017.0
20260504044404 17 298 0.0 3.2 0.00 0.00 0.00 55 1017.0
20260504044305 17 296 0.0 3.2 0.00 0.00 0.00 56 1017.0
20260504044205 17 296 0.0 3.2 0.00 0.00 0.00 56 1017.0
20260504044104 17 295 0.0 3.2 0.00 0.00 0.00 56 1017.0
20260504044005 17 292 0.0 3.2 0.00 0.00 0.00 56 1017.0
20260504043904 17 279 1.6 3.2 0.00 0.00 0.00 57 1017.0
20260504043804 17 272 1.6 3.2 0.00 0.00 0.00 58 1017.1
20260504043705 17 272 1.6 3.2 0.00 0.00 0.00 58 1017.1
20260504043604 17 272 1.6 3.2 0.00 0.00 0.00 58 1017.1
20260504043504 17 273 1.6 3.2 0.00 0.00 0.00 59 1017.2
20260504043406 16 274 1.6 3.2 0.00 0.00 0.00 60 1017.2
20260504043305 16 275 1.6 3.2 0.00 0.00 0.00 60 1017.2
20260504043206 16 273 1.6 3.2 0.00 0.00 0.00 59 1017.2
20260504043104 16 274 1.6 3.2 0.00 0.00 0.00 58 1017.2
20260504043005 16 274 1.6 3.2 0.00 0.00 0.00 58 1017.2
20260504042904 16 275 1.6 3.2 0.00 0.00 0.00 60 1017.2
20260504042804 16 276 1.6 3.2 0.00 0.00 0.00 60 1017.2
20260504042704 16 278 1.6 3.2 0.00 0.00 0.00 59 1017.2
20260504042604 16 278 1.6 3.2 0.00 0.00 0.00 60 1017.2
20260504042505 16 280 1.6 4.8 0.00 0.00 0.00 60 1017.1
20260504042404 16 281 3.2 4.8 0.00 0.00 0.00 61 1017.1
20260504042305 16 281 3.2 4.8 0.00 0.00 0.00 61 1017.2
20260504042204 16 283 3.2 4.8 0.00 0.00 0.00 62 1017.2
20260504042104 16 283 3.2 6.4 0.00 0.00 0.00 61 1017.2
20260504042005 16 283 3.2 6.4 0.00 0.00 0.00 62 1017.1
20260504041904 16 287 3.2 6.4 0.00 0.00 0.00 62 1017.1
20260504041804 16 288 4.8 6.4 0.00 0.00 0.00 61 1017.1
20260504041705 16 290 4.8 6.4 0.00 0.00 0.00 62 1017.1
20260504041605 16 291 4.8 6.4 0.00 0.00 0.00 62 1017.1
20260504041504 16 291 4.8 6.4 0.00 0.00 0.00 63 1017.0
20260504041404 16 292 4.8 6.4 0.00 0.00 0.00 63 1017.0
20260504041304 16 291 4.8 9.7 0.00 0.00 0.00 63 1017.0
20260504041204 16 291 4.8 9.7 0.00 0.00 0.00 63 1017.0
20260504041104 16 291 4.8 9.7 0.00 0.00 0.00 63 1017.0
20260504041004 16 293 4.8 9.7 0.00 0.00 0.00 63 1017.0
20260504040904 16 291 4.8 9.7 0.00 0.00 0.00 63 1017.1
20260504040804 16 292 3.2 9.7 0.00 0.00 0.00 64 1017.1
20260504040704 16 290 3.2 9.7 0.00 0.00 0.00 64 1017.1
20260504040604 16 290 3.2 9.7 0.00 0.00 0.00 65 1017.1
20260504040504 16 290 3.2 9.7 0.00 0.00 0.00 65 1017.1
20260504040404 16 290 3.2 9.7 0.00 0.00 0.00 65 1017.1
20260504040305 16 291 3.2 9.7 0.00 0.00 0.00 65 1017.1
20260504040205 16 291 1.6 9.7 0.00 0.00 0.00 65 1017.1
20260504040106 16 292 1.6 9.7 0.00 0.00 0.00 66 1017.1
20260504040005 15 293 1.6 9.7 0.00 0.00 0.00 66 1017.1
20260504035904 15 293 1.6 9.7 0.00 0.00 0.00 66 1017.1
20260504035804 15 295 1.6 9.7 0.00 0.00 0.00 66 1017.1
20260504035704 15 300 1.6 9.7 0.00 0.00 0.00 67 1017.2
20260504035604 15 303 1.6 6.4 0.00 0.00 0.00 67 1017.1
20260504035505 15 304 1.6 6.4 0.00 0.00 0.00 67 1017.1
20260504035404 15 306 1.6 6.4 0.00 0.00 0.00 67 1017.2
20260504035305 15 312 1.6 6.4 0.00 0.00 0.00 67 1017.2
20260504035204 15 313 0.0 6.4 0.00 0.00 0.00 67 1017.2
20260504035104 15 314 0.0 6.4 0.00 0.00 0.00 67 1017.2
20260504035004 15 315 0.0 6.4 0.00 0.00 0.00 68 1017.2
20260504034904 15 324 0.0 4.8 0.00 0.00 0.00 68 1017.2
20260504034805 15 326 0.0 4.8 0.00 0.00 0.00 67 1017.2
20260504034705 15 329 0.0 3.2 0.00 0.00 0.00 67 1017.2
20260504034605 15 329 0.0 3.2 0.00 0.00 0.00 67 1017.2
20260504034504 15 326 0.0 3.2 0.00 0.00 0.00 67 1017.2
20260504034404 15 325 0.0 3.2 0.00 0.00 0.00 67 1017.2
20260504034304 15 325 1.6 3.2 0.00 0.00 0.00 67 1017.2
20260504034204 15 319 1.6 3.2 0.00 0.00 0.00 68 1017.2
20260504034104 15 306 1.6 3.2 0.00 0.00 0.00 68 1017.2
20260504034004 15 303 1.6 3.2 0.00 0.00 0.00 68 1017.2
20260504033904 15 293 1.6 3.2 0.00 0.00 0.00 68 1017.2
20260504033804 15 287 1.6 3.2 0.00 0.00 0.00 68 1017.2
20260504033704 15 290 1.6 4.8 0.00 0.00 0.00 67 1017.2
20260504033604 15 285 1.6 4.8 0.00 0.00 0.00 67 1017.2
20260504033504 15 286 1.6 4.8 0.00 0.00 0.00 67 1017.2
20260504033404 15 286 3.2 4.8 0.00 0.00 0.00 67 1017.2
20260504033305 15 287 3.2 4.8 0.00 0.00 0.00 67 1017.3
20260504033205 15 289 3.2 4.8 0.00 0.00 0.00 67 1017.3
20260504033107 15 293 3.2 6.4 0.00 0.00 0.00 67 1017.2
20260504033004 15 293 3.2 9.7 0.00 0.00 0.00 67 1017.2
20260504032904 15 292 3.2 9.7 0.00 0.00 0.00 67 1017.2
20260504032804 15 293 3.2 9.7 0.00 0.00 0.00 67 1017.2
20260504032704 15 292 3.2 9.7 0.00 0.00 0.00 67 1017.2
20260504032604 15 293 3.2 11.3 0.00 0.00 0.00 67 1017.2
20260504032505 15 293 3.2 11.3 0.00 0.00 0.00 67 1017.2
20260504032404 15 294 3.2 11.3 0.00 0.00 0.00 67 1017.2
20260504032304 15 295 3.2 11.3 0.00 0.00 0.00 67 1017.1
20260504032204 15 296 1.6 11.3 0.00 0.00 0.00 67 1017.1
20260504032104 15 297 1.6 11.3 0.00 0.00 0.00 67 1017.1
20260504032004 15 298 1.6 11.3 0.00 0.00 0.00 66 1017.2
20260504031904 15 299 1.6 11.3 0.00 0.00 0.00 66 1017.2
20260504031806 15 299 1.6 11.3 0.00 0.00 0.00 66 1017.2
20260504031706 15 299 1.6 11.3 0.00 0.00 0.00 65 1017.2
20260504031604 15 300 1.6 6.4 0.00 0.00 0.00 64 1017.1
20260504031504 15 300 1.6 6.4 0.00 0.00 0.00 64 1017.2
20260504031404 15 299 1.6 6.4 0.00 0.00 0.00 63 1017.2
20260504031304 15 294 3.2 6.4 0.00 0.00 0.00 63 1017.1
20260504031204 15 289 3.2 6.4 0.00 0.00 0.00 63 1017.1
20260504031104 15 280 3.2 3.2 0.00 0.00 0.00 62 1017.1
20260504031004 15 276 3.2 4.8 0.00 0.00 0.00 61 1017.2
20260504030904 15 271 3.2 4.8 0.00 0.00 0.00 60 1017.2
20260504030804 15 274 3.2 4.8 0.00 0.00 0.00 60 1017.2
20260504030704 15 277 3.2 6.4 0.00 0.00 0.00 59 1017.2
20260504030604 15 277 3.2 6.4 0.00 0.00 0.00 59 1017.2
20260504030504 15 279 3.2 6.4 0.00 0.00 0.00 59 1017.2
20260504030404 15 280 3.2 6.4 0.00 0.00 0.00 59 1017.2
20260504030306 15 282 3.2 6.4 0.00 0.00 0.00 59 1017.2
20260504030206 15 283 3.2 6.4 0.00 0.00 0.00 59 1017.2
20260504030105 15 286 3.2 6.4 0.00 0.00 0.00 58 1017.2
20260504030004 15 288 3.2 6.4 0.00 0.00 0.00 59 1017.2
20260504025904 15 292 3.2 6.4 0.00 0.00 0.00 59 1017.1
20260504025804 15 293 3.2 6.4 0.00 0.00 0.00 59 1017.1
20260504025704 15 296 1.6 6.4 0.00 0.00 0.00 59 1017.2
20260504025604 15 298 1.6 6.4 0.00 0.00 0.00 58 1017.2
20260504025504 15 300 1.6 6.4 0.00 0.00 0.00 58 1017.2
20260504025405 15 302 1.6 6.4 0.00 0.00 0.00 59 1017.2
20260504025304 15 305 1.6 6.4 0.00 0.00 0.00 58 1017.2
20260504025204 15 309 1.6 6.4 0.00 0.00 0.00 59 1017.2
20260504025104 15 314 1.6 4.8 0.00 0.00 0.00 59 1017.2
20260504025005 15 317 3.2 4.8 0.00 0.00 0.00 60 1017.2
20260504024904 15 321 3.2 4.8 0.00 0.00 0.00 60 1017.2
20260504024804 15 324 3.2 4.8 0.00 0.00 0.00 61 1017.2
20260504024704 15 326 3.2 4.8 0.00 0.00 0.00 61 1017.2
20260504024604 15 327 3.2 4.8 0.00 0.00 0.00 63 1017.2
20260504024504 15 328 3.2 4.8 0.00 0.00 0.00 64 1017.2
20260504024404 15 330 4.8 4.8 0.00 0.00 0.00 65 1017.2
20260504024304 15 328 4.8 6.4 0.00 0.00 0.00 65 1017.2
20260504024204 15 325 4.8 8.0 0.00 0.00 0.00 65 1017.2
20260504024104 15 322 4.8 8.0 0.00 0.00 0.00 65 1017.3
20260504024004 15 324 4.8 8.0 0.00 0.00 0.00 65 1017.3
20260504023904 15 324 4.8 8.0 0.00 0.00 0.00 64 1017.3
20260504023804 15 325 4.8 8.0 0.00 0.00 0.00 65 1017.3
20260504023704 16 328 4.8 8.0 0.00 0.00 0.00 66 1017.3
20260504023609 16 328 4.8 8.0 0.00 0.00 0.00 67 1017.3
20260504023506 16 330 4.8 8.0 0.00 0.00 0.00 67 1017.3
20260504023422 16 329 4.8 8.0 0.00 0.00 0.00 68 1017.3
20260504023305 16 330 4.8 8.0 0.00 0.00 0.00 67 1017.3
20260504023216 16 333 4.8 8.0 0.00 0.00 0.00 70 1017.3
20260504023108 16 342 4.8 8.0 0.00 0.00 0.00 68 1017.3
20260504023005 16 345 4.8 11.3 0.00 0.00 0.00 70 1017.3
20260504022904 16 347 4.8 11.3 0.00 0.00 0.00 68 1017.3
20260504022805 16 348 4.8 11.3 0.00 0.00 0.00 70 1017.3
20260504022705 16 345 4.8 11.3 0.00 0.00 0.00 68 1017.3
20260504022605 16 345 4.8 11.3 0.00 0.00 0.00 68 1017.3
20260504022505 16 344 4.8 11.3 0.00 0.00 0.00 68 1017.3
20260504022404 16 345 4.8 11.3 0.00 0.00 0.00 69 1017.4
20260504022305 16 346 4.8 11.3 0.00 0.00 0.00 69 1017.4
20260504022205 16 344 4.8 11.3 0.00 0.00 0.00 70 1017.4
20260504022104 16 336 4.8 11.3 0.00 0.00 0.00 66 1017.4
20260504022005 16 333 4.8 8.0 0.00 0.00 0.00 65 1017.4
20260504021904 16 331 4.8 8.0 0.00 0.00 0.00 66 1017.4
20260504021806 16 329 4.8 8.0 0.00 0.00 0.00 66 1017.4
20260504021707 16 327 4.8 8.0 0.00 0.00 0.00 66 1017.4
20260504021605 16 325 4.8 8.0 0.00 0.00 0.00 66 1017.4
20260504021504 16 323 4.8 8.0 0.00 0.00 0.00 67 1017.4
20260504021404 16 318 4.8 8.0 0.00 0.00 0.00 66 1017.4
20260504021305 16 315 4.8 8.0 0.00 0.00 0.00 65 1017.4
20260504021217 16 313 4.8 8.0 0.00 0.00 0.00 66 1017.4
20260504021104 16 311 4.8 8.0 0.00 0.00 0.00 67 1017.4
20260504021005 15 310 4.8 8.0 0.00 0.00 0.00 68 1017.4
20260504020904 15 308 4.8 8.0 0.00 0.00 0.00 66 1017.4
20260504020804 15 308 4.8 8.0 0.00 0.00 0.00 65 1017.4
20260504020705 15 308 4.8 8.0 0.00 0.00 0.00 63 1017.4
20260504020604 15 308 4.8 8.0 0.00 0.00 0.00 65 1017.4
20260504020505 15 306 4.8 8.0 0.00 0.00 0.00 63 1017.4
20260504020404 15 308 4.8 8.0 0.00 0.00 0.00 63 1017.4
20260504020305 15 308 4.8 8.0 0.00 0.00 0.00 65 1017.4
20260504020205 15 310 3.2 8.0 0.00 0.00 0.00 65 1017.4
20260504020104 15 316 3.2 8.0 0.00 0.00 0.00 66 1017.4
20260504020005 15 321 3.2 6.4 0.00 0.00 0.00 65 1017.4
20260504015904 15 325 3.2 6.4 0.00 0.00 0.00 65 1017.4
20260504015804 15 327 3.2 6.4 0.00 0.00 0.00 66 1017.4
20260504015704 15 328 3.2 6.4 0.00 0.00 0.00 64 1017.4
20260504015604 15 329 3.2 6.4 0.00 0.00 0.00 65 1017.4
20260504015505 15 329 3.2 6.4 0.00 0.00 0.00 64 1017.4
20260504015404 15 330 3.2 6.4 0.00 0.00 0.00 64 1017.4
20260504015305 16 332 3.2 4.8 0.00 0.00 0.00 65 1017.4
20260504015204 16 330 3.2 4.8 0.00 0.00 0.00 65 1017.4
20260504015104 16 322 3.2 4.8 0.00 0.00 0.00 65 1017.4
20260504015005 16 313 3.2 4.8 0.00 0.00 0.00 65 1017.4
20260504014904 16 307 3.2 4.8 0.00 0.00 0.00 65 1017.4
20260504014809 16 307 3.2 6.4 0.00 0.00 0.00 65 1017.4
20260504014704 16 308 3.2 6.4 0.00 0.00 0.00 66 1017.4
20260504014605 16 308 3.2 6.4 0.00 0.00 0.00 64 1017.4
20260504014504 16 308 3.2 6.4 0.00 0.00 0.00 64 1017.3
20260504014404 16 308 3.2 6.4 0.00 0.00 0.00 65 1017.3
20260504014304 16 308 3.2 6.4 0.00 0.00 0.00 65 1017.4
20260504014204 16 308 3.2 6.4 0.00 0.00 0.00 66 1017.3
20260504014104 16 308 3.2 6.4 0.00 0.00 0.00 66 1017.3
20260504014004 16 307 3.2 6.4 0.00 0.00 0.00 67 1017.3
20260504013904 16 307 3.2 6.4 0.00 0.00 0.00 64 1017.3
20260504013804 16 304 3.2 4.8 0.00 0.00 0.00 65 1017.4
20260504013704 16 302 3.2 4.8 0.00 0.00 0.00 65 1017.4
20260504013605 16 300 3.2 4.8 0.00 0.00 0.00 64 1017.4
20260504013504 16 300 3.2 4.8 0.00 0.00 0.00 64 1017.3
20260504013404 16 300 3.2 4.8 0.00 0.00 0.00 64 1017.3
20260504013309 16 300 3.2 4.8 0.00 0.00 0.00 64 1017.3
20260504013205 16 300 3.2 4.8 0.00 0.00 0.00 64 1017.4
20260504013105 16 300 3.2 6.4 0.00 0.00 0.00 64 1017.4
20260504013005 16 298 3.2 6.4 0.00 0.00 0.00 64 1017.4
20260504012904 16 297 3.2 6.4 0.00 0.00 0.00 64 1017.4
20260504012804 16 297 3.2 6.4 0.00 0.00 0.00 64 1017.4
20260504012704 16 297 3.2 6.4 0.00 0.00 0.00 64 1017.4
20260504012604 16 297 3.2 6.4 0.00 0.00 0.00 64 1017.4
20260504012504 16 296 3.2 6.4 0.00 0.00 0.00 64 1017.5
20260504012404 16 296 3.2 6.4 0.00 0.00 0.00 64 1017.4
20260504012304 16 296 3.2 6.4 0.00 0.00 0.00 64 1017.4
20260504012204 16 296 3.2 6.4 0.00 0.00 0.00 64 1017.4
20260504012104 16 296 3.2 6.4 0.00 0.00 0.00 64 1017.4
20260504012007 16 297 3.2 6.4 0.00 0.00 0.00 64 1017.4
20260504011909 16 299 3.2 6.4 0.00 0.00 0.00 64 1017.4
20260504011805 16 299 3.2 4.8 0.00 0.00 0.00 64 1017.4
20260504011707 16 298 3.2 4.8 0.00 0.00 0.00 64 1017.4
20260504011604 16 298 3.2 4.8 0.00 0.00 0.00 64 1017.4
20260504011505 16 298 3.2 6.4 0.00 0.00 0.00 64 1017.4
20260504011404 16 298 3.2 6.4 0.00 0.00 0.00 64 1017.5
20260504011304 16 298 3.2 6.4 0.00 0.00 0.00 64 1017.5
20260504011204 16 297 3.2 6.4 0.00 0.00 0.00 64 1017.4
20260504011104 16 298 3.2 6.4 0.00 0.00 0.00 64 1017.4
20260504011004 16 299 3.2 6.4 0.00 0.00 0.00 64 1017.4
20260504010904 16 300 3.2 6.4 0.00 0.00 0.00 64 1017.4
20260504010804 16 301 3.2 6.4 0.00 0.00 0.00 64 1017.4
20260504010704 16 303 3.2 6.4 0.00 0.00 0.00 65 1017.4
20260504010604 16 304 3.2 6.4 0.00 0.00 0.00 65 1017.5
20260504010505 16 305 3.2 6.4 0.00 0.00 0.00 65 1017.5
20260504010404 16 307 3.2 6.4 0.00 0.00 0.00 65 1017.4
20260504010307 16 308 3.2 6.4 0.00 0.00 0.00 65 1017.4
20260504010207 16 309 3.2 6.4 0.00 0.00 0.00 65 1017.4
20260504010105 16 310 3.2 6.4 0.00 0.00 0.00 66 1017.4
20260504010004 16 312 3.2 6.4 0.00 0.00 0.00 66 1017.4
20260504005904 16 312 3.2 6.4 0.00 0.00 0.00 66 1017.4
20260504005804 16 312 3.2 6.4 0.00 0.00 0.00 66 1017.4
20260504005708 16 313 3.2 8.0 0.00 0.00 0.00 67 1017.4
20260504005604 16 313 3.2 8.0 0.00 0.00 0.00 67 1017.5
20260504005504 16 313 3.2 8.0 0.00 0.00 0.00 67 1017.5
20260504005404 16 313 3.2 8.0 0.00 0.00 0.00 67 1017.6
20260504005305 16 313 3.2 8.0 0.00 0.00 0.00 67 1017.6
20260504005204 16 314 3.2 8.0 0.00 0.00 0.00 67 1017.6
20260504005104 16 316 3.2 8.0 0.00 0.00 0.00 67 1017.5
20260504005004 16 317 3.2 8.0 0.00 0.00 0.00 67 1017.5
20260504004904 16 316 3.2 8.0 0.00 0.00 0.00 67 1017.5
20260504004806 16 317 1.6 8.0 0.00 0.00 0.00 67 1017.6
20260504004708 16 316 1.6 6.4 0.00 0.00 0.00 67 1017.6
20260504004604 16 316 1.6 6.4 0.00 0.00 0.00 67 1017.5
20260504004504 16 316 1.6 6.4 0.00 0.00 0.00 67 1017.6
20260504004404 16 317 1.6 6.4 0.00 0.00 0.00 67 1017.6
20260504004305 16 317 3.2 6.4 0.00 0.00 0.00 67 1017.5
20260504004204 16 315 3.2 6.4 0.00 0.00 0.00 67 1017.5
20260504004104 16 312 3.2 6.4 0.00 0.00 0.00 67 1017.6
20260504004004 16 307 3.2 4.8 0.00 0.00 0.00 68 1017.6
20260504003904 16 304 3.2 4.8 0.00 0.00 0.00 68 1017.6
20260504003804 16 304 3.2 4.8 0.00 0.00 0.00 68 1017.6
20260504003704 16 305 3.2 4.8 0.00 0.00 0.00 68 1017.6
20260504003604 16 305 3.2 6.4 0.00 0.00 0.00 68 1017.5
20260504003504 16 308 3.2 6.4 0.00 0.00 0.00 69 1017.5
20260504003404 16 308 3.2 6.4 0.00 0.00 0.00 69 1017.5
20260504003309 16 309 3.2 6.4 0.00 0.00 0.00 69 1017.6
20260504003206 16 310 3.2 6.4 0.00 0.00 0.00 69 1017.6
20260504003104 16 312 3.2 6.4 0.00 0.00 0.00 69 1017.5
20260504003004 16 312 3.2 6.4 0.00 0.00 0.00 69 1017.5
20260504002904 16 314 3.2 6.4 0.00 0.00 0.00 69 1017.5
20260504002804 16 316 3.2 6.4 0.00 0.00 0.00 69 1017.6
20260504002704 16 315 3.2 6.4 0.00 0.00 0.00 69 1017.6
20260504002604 16 318 3.2 6.4 0.00 0.00 0.00 69 1017.6
20260504002504 16 319 3.2 6.4 0.00 0.00 0.00 69 1017.5
20260504002404 16 319 3.2 9.7 0.00 0.00 0.00 69 1017.5
20260504002304 16 321 3.2 9.7 0.00 0.00 0.00 69 1017.5
20260504002204 16 321 3.2 9.7 0.00 0.00 0.00 69 1017.5
20260504002104 16 321 3.2 9.7 0.00 0.00 0.00 70 1017.5
20260504002004 16 324 3.2 9.7 0.00 0.00 0.00 70 1017.6
20260504001904 16 326 3.2 9.7 0.00 0.00 0.00 70 1017.6
20260504001805 16 327 3.2 9.7 0.00 0.00 0.00 70 1017.5
20260504001705 16 331 3.2 9.7 0.00 0.00 0.00 70 1017.5
20260504001604 16 332 3.2 9.7 0.00 0.00 0.00 70 1017.5
20260504001504 16 331 4.8 9.7 0.00 0.00 0.00 70 1017.5
20260504001404 16 332 4.8 6.4 0.00 0.00 0.00 70 1017.4
20260504001304 16 332 4.8 6.4 0.00 0.00 0.00 70 1017.4
20260504001204 16 330 4.8 6.4 0.00 0.00 0.00 70 1017.5
20260504001104 16 329 4.8 6.4 0.00 0.00 0.00 70 1017.5
20260504001004 16 328 4.8 6.4 0.00 0.00 0.00 70 1017.5
20260504000904 16 328 4.8 6.4 0.00 0.00 0.00 70 1017.6
20260504000804 16 327 4.8 6.4 0.00 0.00 0.00 70 1017.6
20260504000704 16 326 4.8 6.4 0.00 0.00 0.00 70 1017.6
20260504000604 16 323 4.8 6.4 0.00 0.00 0.00 71 1017.6
20260504000505 16 322 4.8 6.4 0.00 0.00 0.00 71 1017.6
20260504000405 16 322 4.8 6.4 0.00 0.00 0.00 70 1017.6
20260504000305 16 321 4.8 8.0 0.00 0.00 0.00 71 1017.6
20260504000205 16 321 4.8 8.0 0.00 0.00 0.00 71 1017.6
20260504000106 16 322 4.8 8.0 0.00 0.00 0.00 72 1017.6
20260504000005 16 323 3.2 8.0 0.00 0.00 0.00 72 1017.5
20260503235904 16 322 3.2 8.0 0.00 0.00 0.00 72 1017.6
20260503235804 16 321 3.2 8.0 0.00 0.00 0.00 72 1017.6
20260503235704 16 318 3.2 8.0 0.00 0.00 0.00 73 1017.5
20260503235604 16 316 3.2 8.0 0.00 0.00 0.00 73 1017.6
20260503235505 16 314 3.2 8.0 0.00 0.00 0.00 73 1017.6
20260503235405 16 312 3.2 8.0 0.00 0.00 0.00 73 1017.6
20260503235304 16 311 4.8 8.0 0.00 0.00 0.00 73 1017.6
20260503235204 16 312 4.8 8.0 0.00 0.00 0.00 73 1017.6
20260503235104 16 309 4.8 8.0 0.00 0.00 0.00 73 1017.7
20260503235005 16 306 4.8 6.4 0.00 0.00 0.00 73 1017.7
20260503234904 16 305 4.8 6.4 0.00 0.00 0.00 73 1017.6
20260503234804 16 306 4.8 8.0 0.00 0.00 0.00 73 1017.6
20260503234705 16 309 4.8 11.3 0.00 0.00 0.00 73 1017.7
20260503234608 16 313 6.4 12.9 0.00 0.00 0.00 73 1017.7
20260503234505 16 315 6.4 12.9 0.00 0.00 0.00 73 1017.7
20260503234304 16 317 6.4 12.9 0.00 0.00 0.00 73 1017.7
20260503234204 16 316 6.4 12.9 0.00 0.00 0.00 73 1017.7
20260503234104 16 317 6.4 12.9 0.00 0.00 0.00 73 1017.8
20260503234005 16 317 4.8 12.9 0.00 0.00 0.00 73 1017.8
20260503233904 16 317 4.8 12.9 0.00 0.00 0.00 73 1017.8
20260503233804 16 316 4.8 12.9 0.00 0.00 0.00 73 1017.7
20260503233704 16 316 4.8 12.9 0.00 0.00 0.00 73 1017.7
20260503233604 16 314 4.8 9.7 0.00 0.00 0.00 73 1017.8
20260503233504 16 314 4.8 9.7 0.00 0.00 0.00 73 1017.8
20260503233404 16 314 4.8 9.7 0.00 0.00 0.00 74 1017.8
20260503233307 16 314 4.8 9.7 0.00 0.00 0.00 74 1017.9
20260503233209 16 313 4.8 9.7 0.00 0.00 0.00 74 1017.9
20260503233105 16 311 3.2 8.0 0.00 0.00 0.00 74 1017.9
20260503232904 16 307 3.2 8.0 0.00 0.00 0.00 74 1017.9
20260503232805 16 307 3.2 8.0 0.00 0.00 0.00 74 1018.0
20260503232604 16 306 3.2 8.0 0.00 0.00 0.00 74 1017.9
20260503232504 16 305 3.2 9.7 0.00 0.00 0.00 74 1018.1
20260503232404 16 302 4.8 9.7 0.00 0.00 0.00 74 1018.1
20260503232305 16 301 4.8 9.7 0.00 0.00 0.00 74 1017.9
20260503232205 16 300 4.8 9.7 0.00 0.00 0.00 74 1017.9
20260503232104 16 300 4.8 9.7 0.00 0.00 0.00 74 1018.0
20260503232004 16 302 4.8 9.7 0.00 0.00 0.00 74 1018.0
20260503231904 16 305 4.8 9.7 0.00 0.00 0.00 74 1018.0
20260503231804 16 303 4.8 9.7 0.00 0.00 0.00 74 1018.0
20260503231704 16 304 4.8 9.7 0.00 0.00 0.00 74 1018.0
20260503231604 16 306 4.8 9.7 0.00 0.00 0.00 74 1018.0
20260503230905 16 316 4.8 11.3 0.00 0.00 0.00 74 1018.0
20260503230805 16 318 4.8 11.3 0.00 0.00 0.00 75 1018.1
20260503230705 16 321 4.8 11.3 0.00 0.00 0.00 75 1018.0
20260503230605 16 321 4.8 11.3 0.00 0.00 0.00 75 1018.0
20260503230504 16 321 4.8 11.3 0.00 0.00 0.00 75 1018.0
20260503230405 16 322 3.2 8.0 0.00 0.00 0.00 76 1018.1
20260503230308 16 323 3.2 8.0 0.00 0.00 0.00 75 1018.1
20260503230206 16 323 3.2 8.0 0.00 0.00 0.00 76 1018.1
20260503230105 16 324 3.2 8.0 0.00 0.00 0.00 75 1018.1
20260503230006 16 324 3.2 8.0 0.00 0.00 0.00 75 1018.2
20260503225905 16 324 3.2 8.0 0.00 0.00 0.00 75 1018.2
20260503225808 16 322 3.2 8.0 0.00 0.00 0.00 75 1018.2
20260503225705 16 317 3.2 8.0 0.00 0.00 0.00 75 1018.2
20260503225604 16 317 3.2 8.0 0.00 0.00 0.00 75 1018.2
20260503225505 16 318 3.2 8.0 0.00 0.00 0.00 75 1018.2
20260503225404 16 321 3.2 8.0 0.00 0.00 0.00 75 1018.2
20260503225305 16 324 3.2 8.0 0.00 0.00 0.00 75 1018.2
20260503225205 16 330 3.2 8.0 0.00 0.00 0.00 75 1018.2
20260503225105 16 334 3.2 8.0 0.00 0.00 0.00 74 1018.2
20260503225005 16 334 4.8 8.0 0.00 0.00 0.00 74 1018.2
20260503224905 16 334 4.8 8.0 0.00 0.00 0.00 74 1018.2
20260503224806 16 339 4.8 8.0 0.00 0.00 0.00 74 1018.2
20260503224707 16 343 4.8 8.0 0.00 0.00 0.00 74 1018.2
20260503224606 16 341 4.8 8.0 0.00 0.00 0.00 75 1018.2
20260503224508 16 344 4.8 8.0 0.00 0.00 0.00 75 1018.2
20260503224405 16 341 6.4 8.0 0.00 0.00 0.00 75 1018.2
20260503224305 16 339 6.4 9.7 0.00 0.00 0.00 75 1018.2
20260503224204 16 336 6.4 9.7 0.00 0.00 0.00 75 1018.3
20260503224105 16 332 6.4 9.7 0.00 0.00 0.00 75 1018.3
20260503224005 16 331 6.4 9.7 0.00 0.00 0.00 75 1018.3
20260503223905 16 333 6.4 9.7 0.00 0.00 0.00 75 1018.3
20260503223804 16 333 4.8 9.7 0.00 0.00 0.00 75 1018.3
20260503223705 16 335 4.8 9.7 0.00 0.00 0.00 76 1018.3
20260503223605 16 338 4.8 9.7 0.00 0.00 0.00 76 1018.3
20260503223509 16 338 4.8 9.7 0.00 0.00 0.00 76 1018.3
20260503223405 16 341 4.8 9.7 0.00 0.00 0.00 76 1018.2
20260503223307 16 343 4.8 9.7 0.00 0.00 0.00 76 1018.2
20260503223204 16 346 4.8 9.7 0.00 0.00 0.00 76 1018.2
20260503223108 16 355 4.8 9.7 0.00 0.00 0.00 76 1018.2
20260503223005 16 4 4.8 9.7 0.00 0.00 0.00 76 1018.2
20260503222904 16 9 4.8 9.7 0.00 0.00 0.00 76 1018.2
20260503222805 16 13 4.8 9.7 0.00 0.00 0.00 76 1018.2
20260503222705 16 15 4.8 8.0 0.00 0.00 0.00 76 1018.2
20260503222605 16 17 6.4 8.0 0.00 0.00 0.00 76 1018.3
20260503222504 16 10 6.4 8.0 0.00 0.00 0.00 76 1018.3
20260503222404 16 4 6.4 9.7 0.00 0.00 0.00 76 1018.3
20260503222305 16 360 6.4 9.7 0.00 0.00 0.00 77 1018.3
20260503222205 16 351 6.4 9.7 0.00 0.00 0.00 77 1018.3
20260503222104 16 343 8.0 9.7 0.00 0.00 0.00 77 1018.2
20260503222005 16 333 8.0 11.3 0.00 0.00 0.00 77 1018.2
20260503221904 16 328 8.0 11.3 0.00 0.00 0.00 77 1018.3
20260503221806 16 322 9.7 14.5 0.00 0.00 0.00 77 1018.2
20260503221705 16 317 9.7 14.5 0.00 0.00 0.00 77 1018.2
20260503221605 16 315 9.7 16.1 0.00 0.00 0.00 76 1018.2
20260503221511 16 316 9.7 16.1 0.00 0.00 0.00 77 1018.2
20260503221404 16 315 9.7 16.1 0.00 0.00 0.00 77 1018.2
20260503221304 16 315 9.7 16.1 0.00 0.00 0.00 77 1018.2
20260503221204 16 316 9.7 16.1 0.00 0.00 0.00 77 1018.2
20260503221104 16 315 9.7 16.1 0.00 0.00 0.00 77 1018.2
20260503221005 16 314 9.7 16.1 0.00 0.00 0.00 77 1018.2
20260503220904 16 313 9.7 16.1 0.00 0.00 0.00 77 1018.2
20260503220804 16 313 8.0 16.1 0.00 0.00 0.00 77 1018.2
20260503220704 16 313 8.0 16.1 0.00 0.00 0.00 77 1018.2
20260503220605 16 312 8.0 16.1 0.00 0.00 0.00 76 1018.2
20260503220504 16 312 6.4 16.1 0.00 0.00 0.00 76 1018.1
20260503220405 16 312 6.4 16.1 0.00 0.00 0.00 76 1018.1
20260503220306 16 311 6.4 16.1 0.00 0.00 0.00 76 1018.2
20260503220204 16 312 6.4 16.1 0.00 0.00 0.00 76 1018.2
20260503220104 16 312 6.4 16.1 0.00 0.00 0.00 76 1018.2
20260503220035 16 312 6.4 16.1 0.00 0.00 0.00 76 1018.2
20260503215904 16 313 6.4 16.1 0.00 0.00 0.00 76 1018.2
20260503215804 16 316 6.4 16.1 0.00 0.00 0.00 76 1018.2
20260503215705 16 319 6.4 12.9 0.00 0.00 0.00 76 1018.2
20260503215604 16 320 6.4 9.7 0.00 0.00 0.00 76 1018.2
20260503215505 16 320 6.4 11.3 0.00 0.00 0.00 76 1018.2
20260503215404 16 320 6.4 14.5 0.00 0.00 0.00 76 1018.2
20260503215304 16 321 6.4 14.5 0.00 0.00 0.00 76 1018.3
20260503215204 16 321 6.4 14.5 0.00 0.00 0.00 76 1018.3
20260503215104 16 319 6.4 14.5 0.00 0.00 0.00 76 1018.3
20260503215005 16 318 6.4 14.5 0.00 0.00 0.00 76 1018.3
20260503214904 16 317 6.4 14.5 0.00 0.00 0.00 76 1018.3
20260503214805 16 317 6.4 14.5 0.00 0.00 0.00 76 1018.3
20260503214704 16 317 6.4 14.5 0.00 0.00 0.00 76 1018.3
20260503214606 16 318 6.4 14.5 0.00 0.00 0.00 76 1018.3
20260503214505 16 317 6.4 14.5 0.00 0.00 0.00 76 1018.3
20260503214404 16 317 6.4 14.5 0.00 0.00 0.00 76 1018.3
20260503214304 16 317 6.4 14.5 0.00 0.00 0.00 76 1018.3
20260503214205 16 318 4.8 14.5 0.00 0.00 0.00 76 1018.3
20260503214104 16 321 4.8 14.5 0.00 0.00 0.00 76 1018.3
20260503214010 16 325 4.8 14.5 0.00 0.00 0.00 76 1018.4
20260503213904 16 328 4.8 12.9 0.00 0.00 0.00 76 1018.4
20260503213804 16 332 4.8 12.9 0.00 0.00 0.00 76 1018.4
20260503213705 16 335 4.8 12.9 0.00 0.00 0.00 76 1018.4
20260503213605 16 339 4.8 12.9 0.00 0.00 0.00 76 1018.4
20260503213504 16 344 4.8 12.9 0.00 0.00 0.00 76 1018.4
20260503213404 16 349 4.8 12.9 0.00 0.00 0.00 76 1018.3
20260503213304 16 354 4.8 12.9 0.00 0.00 0.00 76 1018.3
20260503213208 16 360 4.8 12.9 0.00 0.00 0.00 76 1018.3
20260503213106 16 6 4.8 11.3 0.00 0.00 0.00 76 1018.3
20260503213004 16 8 4.8 11.3 0.00 0.00 0.00 76 1018.3
20260503212904 16 12 4.8 11.3 0.00 0.00 0.00 76 1018.3
20260503212804 16 15 4.8 11.3 0.00 0.00 0.00 75 1018.3
20260503212704 16 14 4.8 11.3 0.00 0.00 0.00 75 1018.3
20260503212604 16 11 4.8 11.3 0.00 0.00 0.00 76 1018.3
20260503212504 16 9 4.8 11.3 0.00 0.00 0.00 76 1018.3
20260503212405 16 8 4.8 11.3 0.00 0.00 0.00 76 1018.3
20260503212305 16 2 4.8 8.0 0.00 0.00 0.00 76 1018.3
20260503212204 16 356 4.8 8.0 0.00 0.00 0.00 76 1018.3
20260503212104 16 349 4.8 8.0 0.00 0.00 0.00 76 1018.2
20260503212004 16 343 4.8 8.0 0.00 0.00 0.00 76 1018.2
20260503211904 16 331 4.8 11.3 0.00 0.00 0.00 76 1018.2
20260503211806 16 326 4.8 11.3 0.00 0.00 0.00 76 1018.2
20260503211707 16 324 4.8 11.3 0.00 0.00 0.00 76 1018.3
20260503211605 16 319 4.8 11.3 0.00 0.00 0.00 76 1018.3
20260503211504 16 317 4.8 11.3 0.00 0.00 0.00 76 1018.3
20260503211404 16 316 6.4 11.3 0.00 0.00 0.00 76 1018.4
20260503211304 16 313 6.4 11.3 0.00 0.00 0.00 76 1018.4
20260503211204 16 310 6.4 11.3 0.00 0.00 0.00 76 1018.4
20260503211104 16 306 6.4 11.3 0.00 0.00 0.00 76 1018.3
20260503211004 16 304 6.4 11.3 0.00 0.00 0.00 76 1018.3
20260503210904 16 302 6.4 14.5 0.00 0.00 0.00 76 1018.3
20260503210804 16 300 6.4 14.5 0.00 0.00 0.00 76 1018.3
20260503210704 16 300 6.4 14.5 0.00 0.00 0.00 76 1018.3
20260503210604 16 299 6.4 14.5 0.00 0.00 0.00 76 1018.4
20260503210521 16 299 6.4 14.5 0.00 0.00 0.00 76 1018.4
20260503210404 16 298 6.4 14.5 0.00 0.00 0.00 76 1018.5
20260503210305 16 298 6.4 14.5 0.00 0.00 0.00 76 1018.4
20260503210204 16 297 6.4 14.5 0.00 0.00 0.00 76 1018.4
20260503210106 16 297 6.4 14.5 0.00 0.00 0.00 76 1018.4
20260503210005 16 297 6.4 14.5 0.00 0.00 0.00 76 1018.4
20260503205904 16 297 6.4 12.9 0.00 0.00 0.00 76 1018.5
20260503205804 16 297 6.4 12.9 0.00 0.00 0.00 76 1018.4
20260503205704 16 298 6.4 12.9 0.00 0.00 0.00 76 1018.4
20260503205604 16 298 6.4 12.9 0.00 0.00 0.00 76 1018.4
20260503205504 16 298 6.4 12.9 0.00 0.00 0.00 76 1018.4
20260503205404 16 298 6.4 12.9 0.00 0.00 0.00 76 1018.4
20260503205304 16 299 6.4 12.9 0.00 0.00 0.00 75 1018.4
20260503205204 16 300 6.4 12.9 0.00 0.00 0.00 75 1018.4
20260503205104 16 302 4.8 12.9 0.00 0.00 0.00 76 1018.4
20260503205004 16 303 4.8 12.9 0.00 0.00 0.00 76 1018.4
20260503204904 16 303 4.8 12.9 0.00 0.00 0.00 75 1018.4
20260503204809 16 303 4.8 12.9 0.00 0.00 0.00 75 1018.4
20260503204705 16 302 4.8 11.3 0.00 0.00 0.00 75 1018.4
20260503204606 16 303 4.8 11.3 0.00 0.00 0.00 75 1018.3
20260503204504 16 304 4.8 11.3 0.00 0.00 0.00 75 1018.3
20260503204404 16 301 4.8 11.3 0.00 0.00 0.00 75 1018.3
20260503204304 16 300 4.8 11.3 0.00 0.00 0.00 75 1018.3
20260503204204 16 299 4.8 11.3 0.00 0.00 0.00 75 1018.3
20260503204104 16 297 4.8 11.3 0.00 0.00 0.00 75 1018.3
20260503204004 16 297 4.8 11.3 0.00 0.00 0.00 75 1018.3
20260503203904 16 296 4.8 11.3 0.00 0.00 0.00 75 1018.3
20260503203804 16 298 6.4 11.3 0.00 0.00 0.00 75 1018.2
20260503203704 16 300 6.4 11.3 0.00 0.00 0.00 74 1018.2
20260503203604 16 301 6.4 11.3 0.00 0.00 0.00 74 1018.2
20260503203505 16 303 6.4 11.3 0.00 0.00 0.00 74 1018.3
20260503203404 16 306 6.4 11.3 0.00 0.00 0.00 74 1018.3
20260503203303 16 308 6.4 12.9 0.00 0.00 0.00 74 1018.2
20260503203203 16 309 6.4 12.9 0.00 0.00 0.00 74 1018.2
20260503203104 16 312 6.4 12.9 0.00 0.00 0.00 75 1018.2
20260503203004 16 314 6.4 12.9 0.00 0.00 0.00 74 1018.2
20260503202904 16 317 6.4 12.9 0.00 0.00 0.00 74 1018.2
20260503202808 16 316 6.4 12.9 0.00 0.00 0.00 74 1018.2
20260503202705 16 317 6.4 14.5 0.00 0.00 0.00 74 1018.2
20260503202604 16 316 6.4 14.5 0.00 0.00 0.00 74 1018.2
20260503202505 16 316 6.4 14.5 0.00 0.00 0.00 74 1018.1
20260503202405 16 316 6.4 14.5 0.00 0.00 0.00 74 1018.1
20260503202305 16 315 6.4 14.5 0.00 0.00 0.00 74 1018.1
20260503202205 16 315 6.4 14.5 0.00 0.00 0.00 75 1018.2
20260503202104 16 314 6.4 14.5 0.00 0.00 0.00 74 1018.2
20260503202005 16 312 6.4 14.5 0.00 0.00 0.00 74 1018.2
20260503201904 16 309 6.4 14.5 0.00 0.00 0.00 74 1018.2
20260503201805 16 306 6.4 14.5 0.00 0.00 0.00 74 1018.2
20260503201705 16 303 6.4 14.5 0.00 0.00 0.00 74 1018.2
20260503201607 16 302 6.4 14.5 0.00 0.00 0.00 74 1018.2
20260503201505 16 300 6.4 12.9 0.00 0.00 0.00 74 1018.2
20260503201404 16 299 6.4 12.9 0.00 0.00 0.00 74 1018.2
20260503201304 16 297 4.8 12.9 0.00 0.00 0.00 74 1018.2
20260503201205 16 298 4.8 12.9 0.00 0.00 0.00 74 1018.3
20260503201105 16 296 4.8 12.9 0.00 0.00 0.00 74 1018.3
20260503201005 16 296 4.8 12.9 0.00 0.00 0.00 74 1018.3
20260503200905 16 297 4.8 12.9 0.00 0.00 0.00 74 1018.3
20260503200805 16 298 6.4 12.9 0.00 0.00 0.00 74 1018.3
20260503200705 16 299 6.4 12.9 0.00 0.00 0.00 74 1018.3
20260503200605 16 302 6.4 12.9 0.00 0.00 0.00 74 1018.2
20260503200505 16 305 6.4 12.9 0.00 0.00 0.00 74 1018.2
20260503200405 16 308 6.4 12.9 0.00 0.00 0.00 73 1018.2
20260503200309 16 312 6.4 12.9 0.00 0.00 0.00 73 1018.2
20260503200211 16 312 6.4 12.9 0.00 0.00 0.00 73 1018.2
20260503200106 16 315 6.4 12.9 0.00 0.00 0.00 73 1018.2
20260503200005 16 317 6.4 12.9 0.00 0.00 0.00 73 1018.2
20260503195905 16 318 6.4 12.9 0.00 0.00 0.00 73 1018.2
20260503195805 16 320 6.4 12.9 0.00 0.00 0.00 73 1018.2
20260503195705 16 321 6.4 12.9 0.00 0.00 0.00 73 1018.2
20260503195605 16 322 6.4 12.9 0.00 0.00 0.00 73 1018.2
20260503195505 16 322 6.4 12.9 0.00 0.00 0.00 73 1018.2
20260503195405 16 321 6.4 12.9 0.00 0.00 0.00 73 1018.3
20260503195305 16 322 6.4 12.9 0.00 0.00 0.00 73 1018.3
20260503195204 16 322 6.4 12.9 0.00 0.00 0.00 73 1018.2
20260503195105 16 321 6.4 12.9 0.00 0.00 0.00 73 1018.2
20260503195005 16 319 6.4 12.9 0.00 0.00 0.00 73 1018.2
20260503194905 16 317 6.4 12.9 0.00 0.00 0.00 73 1018.3
20260503194805 16 315 6.4 12.9 0.00 0.00 0.00 73 1018.3
20260503194707 16 314 6.4 12.9 0.00 0.00 0.00 73 1018.3
20260503194604 16 312 6.4 12.9 0.00 0.00 0.00 73 1018.3
20260503194508 16 310 6.4 12.9 0.00 0.00 0.00 73 1018.3
20260503194404 16 310 6.4 12.9 0.00 0.00 0.00 73 1018.3
20260503194204 16 304 6.4 12.9 0.00 0.00 0.00 73 1018.4
20260503194105 16 302 6.4 12.9 0.00 0.00 0.00 73 1018.4
20260503194005 16 301 6.4 12.9 0.00 0.00 0.00 73 1018.4
20260503193904 16 299 6.4 12.9 0.00 0.00 0.00 73 1018.3
20260503193805 16 298 6.4 12.9 0.00 0.00 0.00 73 1018.3
20260503193705 16 297 6.4 12.9 0.00 0.00 0.00 73 1018.3
20260503193604 16 296 6.4 12.9 0.00 0.00 0.00 72 1018.3
20260503193505 16 295 6.4 12.9 0.00 0.00 0.00 72 1018.3
20260503193404 16 294 6.4 12.9 0.00 0.00 0.00 72 1018.4
20260503193306 16 294 6.4 12.9 0.00 0.00 0.00 72 1018.3
20260503193205 16 295 6.4 12.9 0.00 0.00 0.00 72 1018.3
20260503193106 16 295 6.4 12.9 0.00 0.00 0.00 72 1018.3
20260503193005 16 296 6.4 12.9 0.00 0.00 0.00 72 1018.3
20260503192904 16 297 6.4 12.9 0.00 0.00 0.00 72 1018.3
20260503192805 16 297 6.4 12.9 0.00 0.00 0.00 72 1018.3
20260503192704 16 297 6.4 12.9 0.00 0.00 0.00 72 1018.3
20260503192605 17 299 6.4 12.9 0.00 0.00 0.00 72 1018.3
20260503192505 17 303 6.4 12.9 0.00 0.00 0.00 71 1018.3
20260503192411 17 306 4.8 12.9 0.00 0.00 0.00 71 1018.3
20260503192305 17 311 4.8 12.9 0.00 0.00 0.00 71 1018.3
20260503192204 17 313 4.8 12.9 0.00 0.00 0.00 71 1018.3
20260503192104 17 315 4.8 12.9 0.00 0.00 0.00 71 1018.3
20260503192005 17 315 4.8 12.9 0.00 0.00 0.00 71 1018.3
20260503191907 17 320 4.8 12.9 0.00 0.00 0.00 70 1018.3
20260503191807 17 326 3.2 12.9 0.00 0.00 0.00 70 1018.2
20260503191708 17 332 3.2 12.9 0.00 0.00 0.00 70 1018.2
20260503191605 17 334 3.2 11.3 0.00 0.00 0.00 70 1018.2
20260503191505 17 338 3.2 11.3 0.00 0.00 0.00 70 1018.2
20260503191405 17 341 3.2 11.3 0.00 0.00 0.00 70 1018.2
20260503191305 17 342 3.2 11.3 0.00 0.00 0.00 70 1018.2
20260503191207 17 345 4.8 11.3 0.00 0.00 0.00 70 1018.2
20260503191105 17 350 4.8 11.3 0.00 0.00 0.00 70 1018.2
20260503191006 17 354 4.8 8.0 0.00 0.00 0.00 70 1018.1
20260503190905 17 349 4.8 8.0 0.00 0.00 0.00 70 1018.1
20260503190805 17 346 4.8 8.0 0.00 0.00 0.00 70 1018.1
20260503190704 17 343 4.8 8.0 0.00 0.00 0.00 70 1018.0
20260503190605 17 336 4.8 8.0 0.00 0.00 0.00 70 1018.0
20260503190505 17 330 4.8 8.0 0.00 0.00 0.00 70 1018.1
20260503190405 17 327 4.8 8.0 0.00 0.00 0.00 70 1018.1
20260503190305 17 324 4.8 8.0 0.00 0.00 0.00 70 1018.1
20260503190206 17 324 4.8 8.0 0.00 0.00 0.00 70 1018.0
20260503190106 17 321 4.8 8.0 0.00 0.00 0.00 70 1018.0
20260503190005 17 321 3.2 8.0 0.00 0.00 0.00 70 1018.0
20260503185904 17 321 3.2 8.0 0.00 0.00 0.00 70 1018.0
20260503185805 17 319 3.2 8.0 0.00 0.00 0.00 70 1018.0
20260503185704 17 314 3.2 8.0 0.00 0.00 0.00 70 1017.9
20260503185605 17 315 3.2 8.0 0.00 0.00 0.00 70 1017.9
20260503185505 17 317 3.2 8.0 0.00 0.00 0.00 70 1018.0
20260503185404 17 317 3.2 8.0 0.00 0.00 0.00 70 1017.9
20260503185305 17 316 3.2 8.0 0.00 0.00 0.00 70 1017.9
20260503185204 17 313 3.2 8.0 0.00 0.00 0.00 70 1018.0
20260503185104 17 312 3.2 6.4 0.00 0.00 0.00 70 1018.0
20260503185004 17 310 3.2 6.4 0.00 0.00 0.00 70 1018.0
20260503184904 17 304 3.2 9.7 0.00 0.00 0.00 70 1017.9
20260503184805 17 304 3.2 9.7 0.00 0.00 0.00 70 1017.9
20260503184707 17 302 3.2 9.7 0.00 0.00 0.00 70 1018.0
20260503184609 17 302 3.2 9.7 0.00 0.00 0.00 70 1018.0
20260503184507 17 299 3.2 9.7 0.00 0.00 0.00 70 1017.9
20260503184404 17 297 3.2 9.7 0.00 0.00 0.00 70 1017.9
20260503184304 17 296 3.2 9.7 0.00 0.00 0.00 69 1017.9
20260503184204 17 295 3.2 9.7 0.00 0.00 0.00 70 1018.0
20260503184104 17 295 3.2 9.7 0.00 0.00 0.00 69 1017.8
20260503184004 17 294 3.2 9.7 0.00 0.00 0.00 69 1017.8
20260503183904 17 294 3.2 8.0 0.00 0.00 0.00 69 1017.8
20260503183805 17 295 3.2 8.0 0.00 0.00 0.00 69 1017.8
20260503183704 17 297 3.2 8.0 0.00 0.00 0.00 69 1017.8
20260503183604 17 297 3.2 8.0 0.00 0.00 0.00 69 1017.7
20260503183504 17 298 3.2 8.0 0.00 0.00 0.00 69 1017.7
20260503183406 17 299 3.2 8.0 0.00 0.00 0.00 68 1017.6
20260503183308 17 304 3.2 8.0 0.00 0.00 0.00 68 1017.6
20260503183208 17 313 3.2 8.0 0.00 0.00 0.00 68 1017.6
20260503183105 17 325 3.2 6.4 0.00 0.00 0.00 68 1017.6
20260503183005 17 332 3.2 6.4 0.00 0.00 0.00 68 1017.6
20260503182904 17 341 3.2 6.4 0.00 0.00 0.00 68 1017.6
20260503182804 17 351 4.8 6.4 0.00 0.00 0.00 68 1017.5
20260503182704 17 355 4.8 6.4 0.00 0.00 0.00 68 1017.5
20260503182604 17 3 4.8 11.3 0.00 0.00 0.00 68 1017.4
20260503182505 17 4 4.8 11.3 0.00 0.00 0.00 68 1017.4
20260503182404 17 8 4.8 11.3 0.00 0.00 0.00 68 1017.4
20260503182305 17 9 6.4 11.3 0.00 0.00 0.00 68 1017.3
20260503182206 17 5 6.4 14.5 0.00 0.00 0.00 68 1017.3
20260503182104 17 6 6.4 14.5 0.00 0.00 0.00 68 1017.4
20260503182006 17 5 6.4 14.5 0.00 0.00 0.00 68 1017.4
20260503181904 17 4 6.4 14.5 0.00 0.00 0.00 68 1017.3
20260503181805 17 3 6.4 14.5 0.00 0.00 0.00 68 1017.3
20260503181705 17 2 6.4 14.5 0.00 0.00 0.00 68 1017.3
20260503181606 17 5 6.4 14.5 0.00 0.00 0.00 68 1017.4
20260503181505 17 8 6.4 14.5 0.00 0.00 0.00 68 1017.4
20260503181404 17 7 6.4 14.5 0.00 0.00 0.00 68 1017.4
20260503181304 17 8 6.4 14.5 0.00 0.00 0.00 68 1017.4
20260503181205 17 9 6.4 12.9 0.00 0.00 0.00 68 1017.4
20260503181103 17 11 6.4 12.9 0.00 0.00 0.00 68 1017.4
20260503181005 17 11 6.4 12.9 0.00 0.00 0.00 67 1017.4
20260503180904 17 10 4.8 12.9 0.00 0.00 0.00 67 1017.4
20260503180804 17 10 4.8 12.9 0.00 0.00 0.00 67 1017.3
20260503180704 17 10 4.8 12.9 0.00 0.00 0.00 67 1017.3
20260503180604 17 8 4.8 11.3 0.00 0.00 0.00 66 1017.3
20260503180504 17 2 4.8 12.9 0.00 0.00 0.00 66 1017.3
20260503180405 17 1 4.8 12.9 0.00 0.00 0.00 66 1017.3
20260503180304 17 1 4.8 12.9 0.00 0.00 0.00 66 1017.3
20260503180205 17 360 4.8 12.9 0.00 0.00 0.00 65 1017.3
20260503180109 17 359 4.8 12.9 0.00 0.00 0.00 65 1017.2
20260503180004 17 4 4.8 12.9 0.00 0.00 0.00 65 1017.3
20260503175904 17 7 4.8 12.9 0.00 0.00 0.00 65 1017.3
20260503175804 17 11 4.8 12.9 0.00 0.00 0.00 64 1017.2
20260503175704 17 13 6.4 12.9 0.00 0.00 0.00 64 1017.2
20260503175603 17 14 6.4 12.9 0.00 0.00 0.00 64 1017.2
20260503175504 18 22 6.4 12.9 0.00 0.00 0.00 64 1017.2
20260503175404 18 24 6.4 12.9 0.00 0.00 0.00 63 1017.2
20260503175306 18 19 6.4 12.9 0.00 0.00 0.00 63 1017.2
20260503175205 18 16 6.4 12.9 0.00 0.00 0.00 63 1017.2
20260503175105 18 15 6.4 14.5 0.00 0.00 0.00 63 1017.2
20260503175007 18 12 6.4 14.5 0.00 0.00 0.00 63 1017.2
20260503174907 18 12 6.4 14.5 0.00 0.00 0.00 63 1017.2
20260503174812 18 14 6.4 14.5 0.00 0.00 0.00 63 1017.2
20260503174706 18 14 6.4 14.5 0.00 0.00 0.00 63 1017.1
20260503174607 18 13 6.4 14.5 0.00 0.00 0.00 63 1017.1
20260503174505 18 10 6.4 14.5 0.00 0.00 0.00 63 1017.2
20260503174404 18 9 6.4 14.5 0.00 0.00 0.00 63 1017.2
20260503174304 18 12 6.4 14.5 0.00 0.00 0.00 63 1017.2
20260503174205 18 15 6.4 14.5 0.00 0.00 0.00 63 1017.2
20260503174105 18 17 6.4 14.5 0.00 0.00 0.00 63 1017.2
20260503174005 18 12 4.8 14.5 0.00 0.00 0.00 63 1017.2
20260503173805 18 5 4.8 12.9 0.00 0.00 0.00 63 1017.2
20260503173705 18 4 4.8 12.9 0.00 0.00 0.00 63 1017.2
20260503173605 18 5 4.8 12.9 0.00 0.00 0.00 63 1017.2
20260503173505 18 7 4.8 12.9 0.00 0.00 0.00 63 1017.2
20260503173405 18 12 4.8 12.9 0.00 0.00 0.00 63 1017.2
20260503173307 18 13 4.8 12.9 0.00 0.00 0.00 63 1017.2
20260503173205 18 5 4.8 12.9 0.00 0.00 0.00 63 1017.2
20260503173105 18 3 4.8 11.3 0.00 0.00 0.00 63 1017.2
20260503173005 18 7 6.4 11.3 0.00 0.00 0.00 63 1017.1
20260503172905 18 9 6.4 11.3 0.00 0.00 0.00 63 1017.2
20260503172805 18 3 6.4 11.3 0.00 0.00 0.00 63 1017.2
20260503172705 18 357 6.4 11.3 0.00 0.00 0.00 63 1017.2
20260503172604 18 349 6.4 12.9 0.00 0.00 0.00 63 1017.2
20260503172505 18 341 6.4 12.9 0.00 0.00 0.00 63 1017.1
20260503172405 18 338 6.4 12.9 0.00 0.00 0.00 63 1017.1
20260503172305 18 335 6.4 12.9 0.00 0.00 0.00 63 1017.1
20260503172205 18 336 8.0 12.9 0.00 0.00 0.00 63 1017.1
20260503172104 18 332 8.0 12.9 0.00 0.00 0.00 63 1017.0
20260503172005 18 326 8.0 17.7 0.00 0.00 0.00 63 1017.0
20260503171908 18 324 8.0 17.7 0.00 0.00 0.00 62 1017.0
20260503171804 18 323 8.0 17.7 0.00 0.00 0.00 62 1017.0
20260503171707 18 324 8.0 17.7 0.00 0.00 0.00 62 1016.9
20260503171614 18 324 8.0 17.7 0.00 0.00 0.00 63 1017.0
20260503171505 18 326 8.0 17.7 0.00 0.00 0.00 63 1017.0
20260503171405 18 323 8.0 17.7 0.00 0.00 0.00 63 1017.0
20260503171305 18 321 8.0 17.7 0.00 0.00 0.00 63 1017.0
20260503171204 18 321 8.0 17.7 0.00 0.00 0.00 63 1016.9
20260503171104 18 321 8.0 17.7 0.00 0.00 0.00 62 1017.0
20260503171005 18 325 8.0 16.1 0.00 0.00 0.00 63 1017.0
20260503170904 18 325 8.0 16.1 0.00 0.00 0.00 63 1017.0
20260503170804 18 325 8.0 16.1 0.00 0.00 0.00 63 1017.0
20260503170705 18 323 8.0 16.1 0.00 0.00 0.00 63 1017.1
20260503170605 18 321 8.0 16.1 0.00 0.00 0.00 63 1017.0
20260503170504 18 322 8.0 16.1 0.00 0.00 0.00 63 1017.0
20260503170404 18 324 8.0 16.1 0.00 0.00 0.00 63 1017.1
20260503170306 18 321 8.0 16.1 0.00 0.00 0.00 63 1017.0
20260503170206 18 319 8.0 19.3 0.00 0.00 0.00 64 1017.0
20260503170108 18 317 8.0 19.3 0.00 0.00 0.00 64 1017.0
20260503160205 19 338 9.7 22.5 0.00 0.00 0.00 58 1017.0
20260503160105 19 339 9.7 22.5 0.00 0.00 0.00 58 1017.0
20260503151005 20 13 9.7 24.1 0.00 0.00 0.00 55 1017.2
20260503150905 20 12 9.7 24.1 0.00 0.00 0.00 54 1017.2
20260503150805 20 14 9.7 24.1 0.00 0.00 0.00 54 1017.1
20260503150705 20 15 9.7 24.1 0.00 0.00 0.00 54 1017.1
20260503150605 20 12 9.7 22.5 0.00 0.00 0.00 54 1017.1
20260503150505 20 16 9.7 22.5 0.00 0.00 0.00 54 1017.2
20260503150407 21 20 9.7 22.5 0.00 0.00 0.00 54 1017.2
20260503150306 21 21 9.7 22.5 0.00 0.00 0.00 53 1017.2
20260503150205 21 19 9.7 20.9 0.00 0.00 0.00 53 1017.2
20260503150106 21 17 9.7 20.9 0.00 0.00 0.00 55 1017.2
20260503140307 20 326 8.0 25.7 0.00 0.00 0.00 60 1017.2
20260503140205 20 328 8.0 25.7 0.00 0.00 0.00 59 1017.2
20260503140106 21 332 6.4 25.7 0.00 0.00 0.00 59 1017.2
20260503131404 21 2 9.7 19.3 0.00 0.00 0.00 57 1017.6
20260503131304 21 353 9.7 19.3 0.00 0.00 0.00 57 1017.6
20260503131204 21 342 9.7 25.7 0.00 0.00 0.00 57 1017.6
20260503131104 21 341 9.7 25.7 0.00 0.00 0.00 57 1017.6
20260503131004 21 340 9.7 25.7 0.00 0.00 0.00 58 1017.6
20260503130904 21 344 9.7 25.7 0.00 0.00 0.00 58 1017.6
20260503130804 21 336 9.7 25.7 0.00 0.00 0.00 58 1017.6
20260503130704 21 325 9.7 25.7 0.00 0.00 0.00 57 1017.6
20260503130604 21 318 9.7 25.7 0.00 0.00 0.00 57 1017.6
20260503130504 21 321 9.7 25.7 0.00 0.00 0.00 57 1017.6
20260503130404 21 316 9.7 25.7 0.00 0.00 0.00 57 1017.5
20260503130305 21 317 9.7 25.7 0.00 0.00 0.00 57 1017.5
20260503130211 21 315 9.7 22.5 0.00 0.00 0.00 57 1017.7
20260503130106 21 313 9.7 22.5 0.00 0.00 0.00 57 1017.7
20260503120205 20 310 11.3 25.7 0.00 0.00 0.00 58 1018.1
20260503120104 20 309 12.9 29.0 0.00 0.00 0.00 58 1018.1
20260503110805 20 315 12.9 32.2 0.00 0.00 0.00 56 1018.1
20260503110704 20 317 12.9 29.0 0.00 0.00 0.00 56 1018.0
20260503110604 20 319 12.9 29.0 0.00 0.00 0.00 57 1018.0
20260503110504 20 319 12.9 29.0 0.00 0.00 0.00 56 1018.0
20260503110404 20 321 12.9 29.0 0.00 0.00 0.00 57 1018.0
20260503110305 20 320 12.9 29.0 0.00 0.00 0.00 57 1018.1
20260503110206 20 321 12.9 29.0 0.00 0.00 0.00 57 1018.1
20260503110105 20 322 12.9 29.0 0.00 0.00 0.00 56 1018.1
20260503100203 20 321 11.3 27.4 0.00 0.00 0.00 58 1018.4
20260503100104 20 317 11.3 27.4 0.00 0.00 0.00 58 1018.4
20260503090505 19 298 14.5 33.8 0.00 0.00 0.00 57 1018.5
20260503090404 19 298 14.5 33.8 0.00 0.00 0.00 57 1018.4
20260503090305 19 299 14.5 33.8 0.00 0.00 0.00 57 1018.4
20260503090204 19 302 14.5 33.8 0.00 0.00 0.00 57 1018.4
20260503081605 19 304 9.7 35.4 0.00 0.00 0.00 56 1018.4
20260503081504 19 303 9.7 35.4 0.00 0.00 0.00 55 1018.4
20260503081404 19 307 9.7 35.4 0.00 0.00 0.00 55 1018.4
20260503081304 19 307 9.7 35.4 0.00 0.00 0.00 55 1018.5
20260503081205 19 308 9.7 35.4 0.00 0.00 0.00 55 1018.5
20260503081104 19 304 9.7 35.4 0.00 0.00 0.00 55 1018.5
20260503081006 19 306 9.7 35.4 0.00 0.00 0.00 55 1018.4
20260503080904 19 308 9.7 35.4 0.00 0.00 0.00 55 1018.4
20260503080804 19 310 9.7 29.0 0.00 0.00 0.00 55 1018.5
20260503080704 19 314 9.7 29.0 0.00 0.00 0.00 55 1018.5
20260503080604 19 311 8.0 29.0 0.00 0.00 0.00 55 1018.5
20260503080505 19 311 8.0 29.0 0.00 0.00 0.00 55 1018.4
20260503080404 19 305 8.0 29.0 0.00 0.00 0.00 55 1018.5
20260503080305 19 310 8.0 29.0 0.00 0.00 0.00 55 1018.5
20260503080205 19 306 8.0 27.4 0.00 0.00 0.00 55 1018.5
20260503080105 19 307 8.0 27.4 0.00 0.00 0.00 55 1018.5
20260503072904 18 297 9.7 22.5 0.00 0.00 0.00 55 1018.6
20260503072804 18 301 9.7 27.4 0.00 0.00 0.00 55 1018.6
20260503072704 18 301 9.7 27.4 0.00 0.00 0.00 55 1018.6
20260503072604 18 298 9.7 27.4 0.00 0.00 0.00 55 1018.5
20260503072504 18 295 9.7 27.4 0.00 0.00 0.00 55 1018.5
20260503072404 18 293 9.7 27.4 0.00 0.00 0.00 55 1018.6
20260503072305 18 295 9.7 27.4 0.00 0.00 0.00 55 1018.5
20260503072204 18 301 9.7 27.4 0.00 0.00 0.00 55 1018.5
20260503072104 18 304 9.7 27.4 0.00 0.00 0.00 55 1018.5
20260503072004 18 304 9.7 27.4 0.00 0.00 0.00 55 1018.5
20260503071904 18 303 9.7 27.4 0.00 0.00 0.00 55 1018.5
20260503071803 18 303 9.7 25.7 0.00 0.00 0.00 55 1018.4
20260503071705 18 303 9.7 25.7 0.00 0.00 0.00 55 1018.4
20260503071606 18 307 9.7 25.7 0.00 0.00 0.00 55 1018.4
20260503071504 18 302 9.7 25.7 0.00 0.00 0.00 55 1018.5
20260503071404 18 303 9.7 25.7 0.00 0.00 0.00 55 1018.5
20260503071304 18 303 9.7 25.7 0.00 0.00 0.00 55 1018.6
20260503071204 18 301 9.7 29.0 0.00 0.00 0.00 55 1018.6
20260503071103 18 301 9.7 29.0 0.00 0.00 0.00 55 1018.5
20260503071004 18 302 9.7 29.0 0.00 0.00 0.00 55 1018.5
20260503070905 18 303 11.3 29.0 0.00 0.00 0.00 55 1018.5
20260503070805 18 303 11.3 29.0 0.00 0.00 0.00 55 1018.5
20260503070705 18 302 11.3 29.0 0.00 0.00 0.00 55 1018.5
20260503070605 18 300 11.3 29.0 0.00 0.00 0.00 55 1018.6
20260503070505 18 305 11.3 29.0 0.00 0.00 0.00 55 1018.6
20260503070405 18 307 11.3 29.0 0.00 0.00 0.00 55 1018.6
20260503070305 18 304 11.3 29.0 0.00 0.00 0.00 55 1018.6
20260503070206 18 304 11.3 27.4 0.00 0.00 0.00 55 1018.6
20260503070108 18 303 11.3 27.4 0.00 0.00 0.00 55 1018.5
20260503060304 18 304 6.4 19.3 0.00 0.00 0.00 56 1018.3
20260503060206 18 305 6.4 19.3 0.00 0.00 0.00 56 1018.3
20260503060105 18 309 6.4 19.3 0.00 0.00 0.00 56 1018.3
20260503055104 17 297 4.8 16.1 0.00 0.00 0.00 56 1018.2
20260503055005 17 297 4.8 16.1 0.00 0.00 0.00 56 1018.2
20260503054904 17 290 3.2 16.1 0.00 0.00 0.00 56 1018.2
20260503054803 17 273 3.2 16.1 0.00 0.00 0.00 56 1018.2
20260503054704 17 259 3.2 16.1 0.00 0.00 0.00 56 1018.2
20260503054606 17 266 3.2 16.1 0.00 0.00 0.00 56 1018.2
20260503054504 17 267 3.2 16.1 0.00 0.00 0.00 56 1018.1
20260503054404 17 275 3.2 16.1 0.00 0.00 0.00 56 1018.1
20260503054304 17 259 3.2 16.1 0.00 0.00 0.00 56 1018.1
20260503054204 17 248 4.8 16.1 0.00 0.00 0.00 57 1018.1
20260503054004 17 230 4.8 16.1 0.00 0.00 0.00 57 1018.1
20260503053904 17 228 4.8 16.1 0.00 0.00 0.00 57 1018.1
20260503053804 17 238 4.8 12.9 0.00 0.00 0.00 57 1018.0
20260503053704 17 292 4.8 14.5 0.00 0.00 0.00 57 1018.0
20260503053604 17 312 4.8 17.7 0.00 0.00 0.00 57 1018.0
20260503053505 17 316 4.8 17.7 0.00 0.00 0.00 57 1018.1
20260503053404 17 317 4.8 17.7 0.00 0.00 0.00 57 1018.1
20260503053304 17 323 4.8 17.7 0.00 0.00 0.00 58 1018.1
20260503053204 17 313 4.8 17.7 0.00 0.00 0.00 58 1018.1
20260503053105 17 313 4.8 17.7 0.00 0.00 0.00 58 1018.1
20260503053004 17 320 4.8 17.7 0.00 0.00 0.00 58 1018.2
20260503052904 17 323 4.8 17.7 0.00 0.00 0.00 58 1018.2
20260503052804 17 323 4.8 17.7 0.00 0.00 0.00 58 1018.2
20260503052704 17 321 4.8 17.7 0.00 0.00 0.00 58 1018.3
20260503052604 17 319 4.8 16.1 0.00 0.00 0.00 58 1018.3
20260503052505 17 315 4.8 16.1 0.00 0.00 0.00 58 1018.3
20260503052404 17 314 4.8 16.1 0.00 0.00 0.00 58 1018.3
20260503052305 17 309 4.8 16.1 0.00 0.00 0.00 58 1018.4
20260503052204 17 317 4.8 16.1 0.00 0.00 0.00 59 1018.3
20260503052104 17 322 4.8 16.1 0.00 0.00 0.00 59 1018.3
20260503052004 17 320 4.8 16.1 0.00 0.00 0.00 59 1018.3